1514091600.47,16713,8.56,73126.3,-5.05,-5.69,-5.69,0,*52
1514091601.74,16714,8.56,73136.3,-5.07,-5.69,-5.69,0,*57
1514091603.02,16715,8.56,73142.3,-5.07,-5.69,-5.69,0,*56
1514091604.29,16716,8.56,73150.8,-5.07,-5.69,-5.69,0,*55
1514091605.54,16717,8.56,73150.8,-5.05,-5.69,-5.69,0,*56
1514091606.81,16718,8.56,73146.8,-5.07,-5.69,-5.73,0,*50
1514091608.08,16719,8.56,73146.8,-5.03,-5.65,-5.65,0,*5E
1514091609.33,16720,8.56,73142.8,-5.05,-5.69,-5.69,0,*52
1514091610.58,16721,8.56,73140.0,-5.03,-5.65,-5.55,0,*56
1514091611.83,16722,8.56,73132.8,-5.05,-5.69,-5.69,0,*50
1514091613.09,16723,8.56,73110.0,-5.05,-5.69,-5.69,0,*51
1514091614.35,16724,8.56,73094.0,-5.07,-5.73,-5.69,0,*5F
1514091615.62,16725,8.56,73080.5,-5.07,-5.69,-5.69,0,*55
1514091616.9,16726,8.56,73072.0,-5.07,-5.69,-5.69,0,*56
1514091618.17,16727,8.56,73054.0,-5.03,-5.69,-5.65,0,*5F
1514091619.42,16728,8.56,73060.8,-5.05,-5.69,-5.69,0,*5A
1514091620.67,16729,8.56,73058.8,-5.05,-5.69,-5.69,0,*5B
1514091621.94,16730,8.56,73060.0,-5.03,-5.65,-5.65,0,*55
1514091623.19,16731,8.56,73058.3,-5.05,-5.69,-5.69,0,*52
1514091624.44,16732,8.56,73070.5,-5.05,-5.69,-5.69,0,*51
1514091625.69,16733,8.56,73074.8,-5.05,-5.69,-5.69,0,*50
1514091626.94,16734,8.56,73082.0,-5.05,-5.73,-5.69,0,*5C
1514091628.18,16735,8.56,73090.0,-5.05,-5.73,-5.73,0,*56
1514091629.43,16736,8.56,73100.3,-5.05,-5.61,-5.69,0,*5D
1514091630.68,16737,8.56,73108.3,-5.05,-5.69,-5.69,0,*54
1514091631.93,16738,8.56,73120.8,-5.05,-5.69,-5.69,0,*5B
1514091633.2,16739,8.56,73134.5,-5.07,-5.69,-5.69,0,*58
1514091634.47,16740,8.56,73144.0,-5.07,-5.69,-5.73,0,*5D
1514091635.74,16741,8.56,73162.5,-5.03,-5.69,-5.69,0,*53
1514091636.99,16742,8.56,73158.8,-5.05,-5.69,-5.69,0,*56
1514091638.24,16743,8.56,73152.8,-5.05,-5.69,-5.73,0,*5C
1514091639.49,16744,8.56,73150.8,-5.05,-5.69,-5.69,0,*50
1514091640.75,16745,8.56,73128.8,-5.05,-5.69,-5.69,0,*51
1514091642.0,16746,8.56,73114.0,-5.05,-5.69,-5.69,0,*52
1514091643.24,16747,8.56,73098.0,-5.05,-5.61,-5.69,0,*5B
1514091644.49,16748,8.56,73080.0,-5.05,-5.73,-5.69,0,*57
1514091645.74,16749,8.56,73062.3,-5.05,-5.69,-5.69,0,*5D
1514091647.0,16750,8.56,73050.0,-5.05,-5.69,-5.61,0,*5D
1514091648.24,16751,8.56,73042.0,-5.05,-5.61,-5.69,0,*5C
1514091649.52,16752,8.56,73036.0,-5.03,-5.65,-5.69,0,*5D
1514091650.77,16753,8.56,73040.0,-5.05,-5.69,-5.69,0,*56
1514091652.01,16754,8.56,73036.5,-5.05,-5.61,-5.69,0,*59
1514091653.27,16755,8.56,73044.3,-5.05,-5.69,-5.69,0,*50
1514091654.54,16756,8.56,73052.8,-5.07,-5.69,-5.69,0,*51
1514091655.79,16757,8.56,73062.8,-5.05,-5.69,-5.69,0,*52
1514091657.04,16758,8.56,73080.0,-5.05,-5.69,-5.69,0,*5D
1514091658.3,16759,8.56,73100.0,-5.05,-5.69,-5.61,0,*54
1514091659.55,16760,8.56,73114.8,-5.05,-5.69,-5.69,0,*56
1514091660.8,16761,8.56,73116.0,-5.05,-5.69,-5.61,0,*5F
1514091662.06,16762,8.56,73130.0,-5.05,-5.61,-5.61,0,*54
1514091663.3,16763,8.56,73142.0,-5.05,-5.69,-5.73,0,*5E
1514091664.56,16764,8.56,73148.8,-5.05,-5.69,-5.61,0,*5A
1514091665.83,16765,8.56,73150.8,-5.07,-5.69,-5.69,0,*51
1514091667.08,16766,8.56,73152.5,-5.05,-5.61,-5.69,0,*58
1514091668.33,16767,8.56,73148.3,-5.05,-5.69,-5.73,0,*5A
1514091669.58,16768,8.56,73146.0,-5.05,-5.69,-5.69,0,*5E
1514091670.83,16769,8.56,73138.3,-5.05,-5.69,-5.69,0,*5F
1514091672.08,16770,8.56,73134.3,-5.05,-5.69,-5.69,0,*57
1514091673.33,16771,8.56,73126.0,-5.05,-5.69,-5.69,0,*56
1514091674.58,16772,8.56,73108.8,-5.05,-5.69,-5.73,0,*5E
1514091675.83,16773,8.56,73100.8,-5.05,-5.61,-5.61,0,*54
1514091677.1,16774,8.56,73082.8,-5.07,-5.69,-5.69,0,*51
1514091678.35,16775,8.56,73070.5,-5.03,-5.55,-5.65,0,*57
1514091679.61,16776,8.56,73064.8,-5.05,-5.69,-5.69,0,*51
1514091680.88,16777,8.56,73054.0,-5.07,-5.69,-5.61,0,*5A
1514091682.14,16778,8.56,73054.3,-5.05,-5.69,-5.61,0,*57
1514091683.39,16779,8.56,73062.0,-5.05,-5.69,-5.69,0,*5E
1514091684.66,16780,8.56,73058.8,-5.03,-5.65,-5.65,0,*5E
1514091685.91,16781,8.56,73058.5,-5.05,-5.69,-5.69,0,*59
1514091687.16,16782,8.56,73060.8,-5.05,-5.69,-5.69,0,*5A
1514091688.41,16783,8.56,73062.3,-5.05,-5.69,-5.73,0,*50
1514091689.68,16784,8.56,73066.0,-5.07,-5.73,-5.69,0,*55
1514091690.93,16785,8.56,73078.0,-5.05,-5.69,-5.69,0,*5D
1514091692.18,16786,8.56,73078.8,-5.05,-5.69,-5.69,0,*5E
1514091693.41,16787,8.56,73086.0,-5.05,-5.69,-5.55,0,*50
1514091694.67,16788,8.56,73082.3,-5.05,-5.69,-5.61,0,*58
1514091695.92,16789,8.56,73088.5,-5.05,-5.69,-5.61,0,*59
1514091697.17,16790,8.56,73090.8,-5.05,-5.61,-5.69,0,*51
1514091698.42,16791,8.56,73096.3,-5.05,-5.69,-5.69,0,*58
1514091699.67,16792,8.56,73098.3,-5.05,-5.69,-5.73,0,*50
1514091700.92,16793,8.56,73098.8,-5.05,-5.73,-5.61,0,*59
1514091702.17,16794,8.56,73102.3,-5.05,-5.69,-5.61,0,*55
1514091703.44,16795,8.56,73110.5,-5.03,-5.65,-5.65,0,*5A
1514091704.71,16796,8.56,73114.5,-5.03,-5.65,-5.65,0,*59
1514091705.96,16797,8.56,73120.3,-5.05,-5.69,-5.69,0,*5E
1514091707.21,16798,8.56,73130.0,-5.05,-5.61,-5.69,0,*59
1514091708.46,16799,8.56,73140.0,-5.05,-5.61,-5.73,0,*53
1514091709.7,16800,8.56,73146.0,-5.05,-5.73,-5.69,0,*54
1514091710.96,16801,8.56,73148.3,-5.05,-5.69,-5.61,0,*56
1514091712.23,16802,8.56,73158.0,-5.03,-5.69,-5.65,0,*57
1514091713.5,16803,8.56,73174.8,-5.03,-5.65,-5.69,0,*56
1514091714.77,16804,8.56,73178.0,-5.03,-5.65,-5.69,0,*51
1514091716.02,16805,8.56,73186.3,-5.05,-5.69,-5.69,0,*5A
1514091717.29,16806,8.56,73188.0,-5.03,-5.65,-5.65,0,*5F
1514091718.56,16807,8.56,73192.8,-5.03,-5.65,-5.69,0,*52
1514091719.8,16808,8.56,73188.0,-5.05,-5.69,-5.55,0,*58
1514091721.04,16809,8.56,73184.0,-5.05,-5.73,-5.69,0,*5D
1514091722.28,16810,8.56,73190.5,-5.05,-5.73,-5.73,0,*5E
1514091723.53,16811,8.56,73190.5,-5.05,-5.73,-5.61,0,*5C
1514091724.78,16812,8.56,73176.0,-5.05,-5.69,-5.69,0,*5C
1514091726.03,16813,8.56,73178.3,-5.05,-5.69,-5.73,0,*56
1514091727.28,16814,8.56,73170.3,-5.03,-5.65,-5.55,0,*5F
1514091728.53,16815,8.56,73170.0,-5.03,-5.65,-5.55,0,*5E
1514091729.8,16816,8.56,73164.0,-5.03,-5.65,-5.65,0,*5E
1514091731.08,16817,8.56,73180.3,-5.03,-5.65,-5.69,0,*53
1514091732.35,16818,8.56,73206.3,-5.03,-5.65,-5.65,0,*50
1514091733.59,16819,8.56,73202.5,-5.05,-5.61,-5.69,0,*5F
1514091734.87,16820,8.56,73200.5,-5.03,-5.69,-5.65,0,*57
1514091736.1,16821,8.56,73198.3,-5.05,-5.55,-5.65,0,*5F
1514091737.35,16822,8.56,73200.8,-5.05,-5.69,-5.69,0,*5F
1514091738.6,16823,8.56,73196.0,-5.05,-5.69,-5.73,0,*55
1514091739.84,16824,8.56,73198.5,-5.03,-5.65,-5.51,0,*58
1514091741.11,16825,8.56,73184.8,-5.03,-5.65,-5.69,0,*52
1514091742.37,16826,8.56,73182.5,-5.05,-5.69,-5.61,0,*53
1514091743.64,16827,8.56,73182.0,-5.03,-5.65,-5.69,0,*50
1514091744.91,16828,8.56,73180.3,-5.03,-5.65,-5.65,0,*53
1514091746.18,16829,8.56,73182.8,-5.03,-5.65,-5.65,0,*52
1514091747.45,16830,8.56,73166.3,-5.03,-5.69,-5.65,0,*56
1514091748.68,16831,8.56,73152.5,-5.01,-5.65,-5.55,0,*5A
1514091749.93,16832,8.56,73142.0,-5.03,-5.69,-5.55,0,*57
1514091751.2,16833,8.56,73150.8,-5.03,-5.65,-5.65,0,*59
1514091752.44,16834,8.56,73158.5,-5.01,-5.65,-5.65,0,*5C
1514091753.72,16835,8.56,73144.5,-5.03,-5.65,-5.65,0,*5F
1514091754.99,16836,8.56,73146.3,-5.03,-5.69,-5.65,0,*50
1514091756.24,16837,8.56,73154.3,-5.03,-5.55,-5.65,0,*5E
1514091757.47,16838,8.56,73150.8,-5.03,-5.55,-5.55,0,*52
1514091758.74,16839,8.56,73110.5,-5.03,-5.65,-5.65,0,*53
1514091759.99,16840,8.56,73092.0,-5.03,-5.65,-5.55,0,*5E
1514091761.26,16841,8.56,73088.3,-5.03,-5.65,-5.69,0,*50
1514091762.53,16842,8.56,73094.3,-5.03,-5.65,-5.65,0,*5F
1514091763.8,16843,8.56,73058.8,-5.03,-5.65,-5.65,0,*5E
1514091765.07,16844,8.56,73064.0,-5.03,-5.65,-5.65,0,*59
1514091766.32,16845,8.56,73056.8,-5.03,-5.65,-5.51,0,*5F
1514091767.59,16846,8.56,73066.8,-5.03,-5.65,-5.65,0,*5B
1514091768.84,16847,8.56,73072.5,-5.03,-5.65,-5.55,0,*59
1514091770.05,16848,8.56,73096.3,-5.01,-5.55,-5.55,0,*57
1514091771.3,16849,8.56,73098.3,-5.03,-5.69,-5.51,0,*5F
1514091772.57,16850,8.56,73116.3,-5.03,-5.65,-5.65,0,*5C
1514091773.82,16851,8.56,73134.5,-5.03,-5.65,-5.55,0,*5E
1514091775.08,16852,8.56,73122.0,-5.03,-5.65,-5.55,0,*5D
1514091776.34,16853,8.56,73048.8,-5.03,-5.65,-5.65,0,*5F
1514091777.59,16854,8.56,73032.5,-5.05,-5.61,-5.69,0,*56
1514091778.86,16855,8.56,73028.8,-5.03,-5.65,-5.65,0,*59
1514091780.13,16856,8.56,73042.5,-5.03,-5.65,-5.65,0,*5A
1514091781.35,16857,8.56,73034.8,-5.01,-5.51,-5.65,0,*5E
1514091782.62,16858,8.56,73038.0,-5.03,-5.65,-5.65,0,*54
1514091783.88,16859,8.56,73044.8,-5.03,-5.55,-5.65,0,*56
1514091785.11,16860,8.56,73056.3,-5.03,-5.55,-5.55,0,*5F
1514091786.38,16861,8.56,73100.3,-5.03,-5.65,-5.69,0,*52
1514091787.65,16862,8.56,73108.3,-5.03,-5.65,-5.65,0,*5D
1514091788.92,16863,8.56,73114.8,-5.03,-5.69,-5.65,0,*50
1514091790.14,16864,8.56,73116.0,-5.01,-5.55,-5.65,0,*5A
1514091791.41,16865,8.56,73116.0,-5.03,-5.65,-5.65,0,*5A
1514091792.68,16866,8.56,73150.0,-5.03,-5.65,-5.65,0,*59
1514091793.94,16867,8.56,73152.5,-5.03,-5.65,-5.55,0,*5B
1514091795.19,16868,8.56,73160.5,-5.03,-5.65,-5.55,0,*54
1514091796.46,16869,8.56,73152.3,-5.03,-5.65,-5.65,0,*56
1514091797.73,16870,8.56,73174.5,-5.03,-5.65,-5.65,0,*5E
1514091799.0,16871,8.56,73174.5,-5.03,-5.65,-5.65,0,*5F
1514091800.22,16872,8.56,73182.5,-5.01,-5.65,-5.55,0,*5D
1514091801.48,16873,8.56,73174.8,-5.03,-5.65,-5.55,0,*5E
1514091802.72,16874,8.56,73168.3,-5.05,-5.61,-5.69,0,*54
1514091804.0,16875,8.56,73178.0,-5.03,-5.69,-5.69,0,*5B
1514091805.25,16876,8.56,73174.3,-5.03,-5.69,-5.55,0,*57
1514091806.52,16877,8.56,73170.0,-5.03,-5.65,-5.65,0,*59
1514091807.75,16878,8.56,73168.3,-5.03,-5.55,-5.55,0,*56
1514091808.98,16879,8.56,73166.8,-5.03,-5.55,-5.51,0,*53
1514091810.22,16880,8.56,73162.5,-5.01,-5.65,-5.65,0,*53
1514091811.45,16881,8.56,73156.3,-5.01,-5.65,-5.55,0,*51
1514091812.72,16882,8.56,73164.0,-5.03,-5.65,-5.65,0,*53
1514091813.97,16883,8.56,73168.0,-5.03,-5.55,-5.65,0,*51
1514091815.24,16884,8.56,73170.3,-5.03,-5.65,-5.65,0,*55
1514091816.47,16885,8.56,73166.0,-5.01,-5.69,-5.55,0,*59
1514091817.74,16886,8.56,73160.8,-5.03,-5.65,-5.65,0,*57
1514091818.99,16887,8.56,73164.3,-5.03,-5.65,-5.55,0,*55
1514091820.24,16888,8.56,73142.5,-5.03,-5.65,-5.55,0,*5A
1514091821.47,16889,8.56,73130.5,-5.01,-5.65,-5.55,0,*59
1514091822.72,16890,8.56,73118.3,-5.03,-5.55,-5.65,0,*53
1514091823.97,16891,8.56,73100.5,-5.03,-5.55,-5.69,0,*5E
1514091825.22,16892,8.56,73092.3,-5.03,-5.69,-5.55,0,*5D
1514091826.49,16893,8.56,73056.3,-5.03,-5.65,-5.65,0,*53
1514091827.76,16894,8.56,73048.8,-5.03,-5.65,-5.69,0,*58
1514091829.03,16895,8.56,73048.8,-5.03,-5.65,-5.65,0,*55
1514091830.3,16896,8.56,73056.3,-5.03,-5.65,-5.65,0,*56
1514091831.57,16897,8.56,73062.5,-5.03,-5.65,-5.65,0,*57
1514091832.82,16898,8.56,73060.0,-5.03,-5.69,-5.51,0,*53
1514091834.09,16899,8.56,73040.0,-5.03,-5.65,-5.65,0,*59
1514091835.32,16900,8.56,73056.0,-5.01,-5.55,-5.65,0,*59
1514091836.56,16901,8.56,73066.5,-5.01,-5.65,-5.65,0,*5B
1514091837.81,16902,8.56,73076.8,-5.03,-5.65,-5.51,0,*5D
1514091839.04,16903,8.56,73108.0,-5.03,-5.55,-5.55,0,*5B
1514091840.29,16904,8.56,73124.8,-5.03,-5.55,-5.65,0,*5F
1514091841.54,16905,8.56,73136.8,-5.03,-5.65,-5.55,0,*5E
1514091842.79,16906,8.56,73160.0,-5.03,-5.65,-5.55,0,*5D
1514091844.05,16907,8.56,73156.0,-5.03,-5.65,-5.55,0,*5C
1514091845.32,16908,8.56,73166.0,-5.03,-5.65,-5.65,0,*50
1514091846.56,16909,8.56,73170.8,-5.01,-5.65,-5.65,0,*53
1514091847.79,16910,8.56,73174.5,-5.01,-5.65,-5.55,0,*58
1514091849.04,16911,8.56,73176.0,-5.03,-5.55,-5.65,0,*5B
1514091850.29,16912,8.56,73184.5,-5.03,-5.65,-5.55,0,*58
1514091851.54,16913,8.56,73188.3,-5.03,-5.65,-5.55,0,*59
1514091852.79,16914,8.56,73188.0,-5.01,-5.65,-5.65,0,*5F
1514091854.03,16915,8.56,73186.3,-5.01,-5.65,-5.65,0,*5E
1514091855.28,16916,8.56,73186.5,-5.03,-5.65,-5.51,0,*58
1514091856.52,16917,8.56,73180.5,-5.01,-5.65,-5.65,0,*5C
1514091857.79,16918,8.56,73174.0,-5.03,-5.65,-5.65,0,*51
1514091859.04,16919,8.56,73172.3,-5.01,-5.65,-5.69,0,*5E
1514091860.31,16920,8.56,73156.3,-5.03,-5.65,-5.65,0,*5A
1514091861.56,16921,8.56,73148.0,-5.03,-5.65,-5.55,0,*58
1514091862.83,16922,8.56,73138.0,-5.03,-5.65,-5.65,0,*58
1514091864.08,16923,8.56,73128.5,-5.03,-5.65,-5.55,0,*5A
1514091865.35,16924,8.56,73082.8,-5.03,-5.65,-5.69,0,*52
1514091866.6,16925,8.56,73066.3,-5.01,-5.65,-5.65,0,*5D
1514091867.87,16926,8.56,73052.3,-5.03,-5.65,-5.65,0,*5C
1514091869.11,16927,8.56,73060.3,-5.01,-5.69,-5.65,0,*53
1514091870.36,16928,8.56,73050.3,-5.01,-5.65,-5.65,0,*50
1514091871.6,16929,8.56,73000.0,-5.01,-5.65,-5.65,0,*51
1514091872.83,16930,8.56,72982.8,-5.01,-5.55,-5.65,0,*5A
1514091874.1,16931,8.56,72956.3,-5.03,-5.65,-5.65,0,*5A
1514091875.34,16932,8.56,72944.5,-5.01,-5.69,-5.65,0,*57
1514091876.6,16933,8.56,73000.3,-5.03,-5.55,-5.65,0,*5B
1514091877.85,16934,8.56,73026.3,-5.03,-5.55,-5.65,0,*5C
1514091879.12,16935,8.56,73056.0,-5.03,-5.65,-5.65,0,*5E
1514091880.36,16936,8.56,73084.8,-5.01,-5.65,-5.69,0,*53
1514091881.59,16937,8.56,73110.8,-5.01,-5.55,-5.65,0,*5D
1514091882.84,16938,8.56,73138.5,-5.03,-5.55,-5.65,0,*50
1514091884.06,16939,8.56,73154.0,-5.01,-5.65,-5.55,0,*53
1514091885.31,16940,8.56,73164.5,-5.01,-5.65,-5.65,0,*5E
1514091886.58,16941,8.56,73178.8,-5.03,-5.65,-5.65,0,*5D
1514091887.82,16942,8.56,73180.0,-5.01,-5.65,-5.65,0,*5C
1514091889.07,16943,8.56,73186.0,-5.01,-5.65,-5.65,0,*5D
1514091890.29,16944,8.56,73180.8,-5.01,-5.69,-5.55,0,*55
1514091891.5,16945,8.56,73192.3,-5.01,-5.55,-5.55,0,*5B
1514091892.73,16946,8.56,73192.3,-5.03,-5.55,-5.55,0,*5A
1514091893.96,16947,8.56,73190.0,-5.01,-5.65,-5.55,0,*5A
1514091895.18,16948,8.56,73172.8,-5.01,-5.55,-5.65,0,*55
1514091896.43,16949,8.56,73154.5,-5.01,-5.69,-5.65,0,*5B
1514091897.65,16950,8.56,73132.3,-5.01,-5.55,-5.65,0,*5C
1514091898.9,16951,8.56,73118.0,-5.01,-5.65,-5.65,0,*5E
1514091900.12,16952,8.56,73094.0,-5.01,-5.65,-5.55,0,*5E
1514091901.37,16953,8.56,73062.8,-5.03,-5.69,-5.55,0,*51
1514091902.6,16954,8.56,73056.3,-5.01,-5.55,-5.65,0,*58
1514091903.85,16955,8.56,73054.3,-5.03,-5.65,-5.55,0,*5B
1514091905.08,16956,8.56,73054.8,-5.03,-5.55,-5.55,0,*5B
1514091906.29,16957,8.56,73054.3,-5.01,-5.55,-5.55,0,*58
1514091907.53,16958,8.56,73052.8,-5.01,-5.69,-5.69,0,*57
1514091908.76,16959,8.56,73054.3,-5.03,-5.55,-5.55,0,*54
1514091909.97,16960,8.56,73052.0,-5.01,-5.55,-5.55,0,*5C
1514091911.19,16961,8.56,73062.8,-5.01,-5.69,-5.55,0,*52
1514091912.42,16962,8.56,73090.0,-5.01,-5.65,-5.55,0,*5D
1514091913.64,16963,8.56,73130.8,-5.01,-5.55,-5.65,0,*5C
1514091914.89,16964,8.56,73146.8,-5.01,-5.65,-5.65,0,*58
1514091916.16,16965,8.56,73140.3,-5.03,-5.65,-5.65,0,*5B
1514091917.39,16966,8.56,73158.8,-5.01,-5.65,-5.55,0,*59
1514091918.64,16967,8.56,73174.3,-5.03,-5.65,-5.55,0,*5A
1514091919.89,16968,8.56,73172.3,-5.03,-5.65,-5.55,0,*55
1514091921.14,16969,8.56,73168.0,-5.03,-5.65,-5.51,0,*50
1514091922.34,16970,8.56,73142.8,-5.01,-5.55,-5.51,0,*59
1514091923.57,16971,8.56,73118.8,-5.01,-5.55,-5.65,0,*5F
1514091924.82,16972,8.56,73132.8,-5.03,-5.65,-5.55,0,*5E
1514091926.06,16973,8.56,73130.0,-5.01,-5.65,-5.65,0,*5E
1514091927.31,16974,8.56,73142.8,-5.01,-5.65,-5.65,0,*59
1514091928.58,16975,8.56,73142.0,-5.03,-5.65,-5.69,0,*56
1514091929.82,16976,8.56,73134.8,-5.01,-5.65,-5.65,0,*5B
1514091931.05,16977,8.56,73128.3,-5.01,-5.65,-5.55,0,*59
1514091932.3,16978,8.56,73122.3,-5.03,-5.65,-5.55,0,*54
1514091933.54,16979,8.56,73108.3,-5.01,-5.65,-5.69,0,*58
1514091934.81,16980,8.56,73102.3,-5.03,-5.65,-5.65,0,*50
1514091936.06,16981,8.56,73106.3,-5.01,-5.65,-5.65,0,*53
1514091937.26,16982,8.56,73106.0,-5.01,-5.55,-5.55,0,*50
1514091938.49,16983,8.56,73120.5,-5.01,-5.55,-5.65,0,*52
1514091939.71,16984,8.56,73124.8,-5.01,-5.55,-5.69,0,*59
1514091940.96,16985,8.56,73130.0,-5.01,-5.65,-5.65,0,*57
1514091942.21,16986,8.56,73136.0,-5.03,-5.55,-5.65,0,*55
1514091943.43,16987,8.56,73136.8,-5.01,-5.55,-5.69,0,*5A
1514091944.64,16988,8.56,73140.8,-5.01,-5.55,-5.55,0,*5A
1514091945.86,16989,8.56,73142.0,-5.01,-5.65,-5.55,0,*58
1514091947.12,16990,8.56,73140.3,-5.03,-5.65,-5.55,0,*52
1514091948.36,16991,8.56,73150.3,-5.01,-5.65,-5.65,0,*52
1514091949.58,16992,8.56,73148.8,-5.01,-5.51,-5.69,0,*5A
1514091950.83,16993,8.56,73150.3,-5.03,-5.65,-5.55,0,*51
1514091952.04,16994,8.56,73152.5,-5.01,-5.55,-5.55,0,*57
1514091953.28,16995,8.56,73148.0,-5.01,-5.65,-5.65,0,*56
1514091954.53,16996,8.56,73148.8,-5.01,-5.69,-5.65,0,*59
1514091955.77,16997,8.56,73146.8,-5.01,-5.65,-5.65,0,*54
1514091957.0,16998,8.56,73144.8,-5.01,-5.65,-5.55,0,*58
1514091958.23,16999,8.56,73148.3,-5.01,-5.69,-5.55,0,*55
1514091959.47,17000,8.56,73152.0,-5.01,-5.65,-5.65,0,*52
1514091960.7,17001,8.56,73154.5,-5.01,-5.65,-5.55,0,*50
1514091961.92,17002,8.56,73156.5,-5.01,-5.65,-5.55,0,*53
1514091963.15,17003,8.56,73162.0,-5.01,-5.65,-5.55,0,*52
1514091964.4,17004,8.56,73156.3,-4.97,-5.61,-5.51,0,*5B
1514091965.67,17005,8.56,73160.3,-4.97,-5.61,-5.65,0,*5D
1514091966.91,17006,8.56,73174.8,-5.01,-5.65,-5.65,0,*54
1514091968.14,17007,8.56,73170.0,-5.01,-5.65,-5.55,0,*56
1514091969.34,17008,8.56,73168.3,-5.01,-5.55,-5.55,0,*5A
1514091970.58,17009,8.56,73150.5,-5.03,-5.55,-5.55,0,*59
1514091971.8,17010,8.56,73148.0,-5.01,-5.65,-5.55,0,*50
1514091973.05,17011,8.56,73162.5,-5.01,-5.65,-5.65,0,*52
1514091974.29,17012,8.56,73152.0,-5.01,-5.65,-5.65,0,*51
1514091975.54,17013,8.56,73138.0,-5.01,-5.65,-5.65,0,*50
1514091976.79,17014,8.56,73136.0,-5.03,-5.65,-5.55,0,*56
1514091978.01,17015,8.56,73150.8,-5.01,-5.65,-5.55,0,*55
1514091979.24,17016,8.56,73186.8,-5.01,-5.65,-5.55,0,*56
1514091980.47,17017,8.56,73190.8,-5.01,-5.65,-5.55,0,*57
1514091981.72,17018,8.56,73172.3,-5.03,-5.65,-5.55,0,*5A
1514091982.92,17019,8.56,73166.8,-5.01,-5.55,-5.55,0,*5A
1514091984.13,17020,8.56,73150.3,-5.01,-5.55,-5.55,0,*50
1514091985.35,17021,8.56,73134.8,-5.01,-5.65,-5.55,0,*52
1514091986.58,17022,8.56,73148.5,-5.01,-5.65,-5.55,0,*51
1514091987.84,17023,8.56,73166.3,-4.97,-5.51,-5.61,0,*5E
1514091989.09,17024,8.56,73154.8,-4.97,-5.51,-5.61,0,*59
1514091990.32,17025,8.56,73158.5,-4.97,-5.51,-5.51,0,*5B
1514091991.55,17026,8.56,73186.5,-4.97,-5.47,-5.51,0,*5F
1514091992.78,17027,8.56,73164.3,-4.97,-5.51,-5.51,0,*59
1514091994.03,17028,8.56,73134.5,-4.97,-5.51,-5.61,0,*55
1514091995.28,17029,8.56,73102.8,-4.97,-5.61,-5.51,0,*54
1514091996.54,17030,8.56,73112.5,-4.97,-5.51,-5.61,0,*5C
1514091997.78,17031,8.56,73076.0,-5.01,-5.65,-5.65,0,*50
1514091999.03,17032,8.56,73054.0,-5.01,-5.65,-5.65,0,*53
1514092000.31,17033,8.56,73046.8,-4.97,-5.61,-5.61,0,*5C
1514092001.55,17034,8.56,73040.5,-5.01,-5.65,-5.65,0,*55
1514092002.79,17035,8.56,73050.3,-5.01,-5.65,-5.65,0,*54
1514092004.07,17036,8.56,73054.3,-4.97,-5.61,-5.61,0,*59
1514092005.27,17037,8.56,73058.8,-4.95,-5.51,-5.47,0,*5D
1514092006.52,17038,8.56,73066.0,-4.97,-5.61,-5.51,0,*54
1514092007.74,17039,8.56,73062.5,-5.01,-5.65,-5.55,0,*5B
1514092008.97,17040,8.56,73064.3,-5.01,-5.65,-5.55,0,*55
1514092010.17,17041,8.56,73072.0,-5.01,-5.55,-5.55,0,*57
1514092011.4,17042,8.56,73074.8,-5.01,-5.65,-5.55,0,*57
1514092012.65,17043,8.56,73068.5,-5.01,-5.65,-5.65,0,*55
1514092013.9,17044,8.56,73066.8,-4.97,-5.65,-5.51,0,*5B
1514092015.15,17045,8.56,73066.5,-4.97,-5.61,-5.51,0,*5E
1514092016.4,17046,8.56,73068.0,-4.97,-5.61,-5.51,0,*5D
1514092017.65,17047,8.56,73068.3,-4.97,-5.61,-5.51,0,*5C
1514092018.93,17048,8.56,73068.0,-4.97,-5.65,-5.61,0,*54
1514092020.15,17049,8.56,73068.0,-5.01,-5.65,-5.55,0,*5C
1514092021.4,17050,8.56,73068.0,-5.01,-5.69,-5.65,0,*5B
1514092022.6,17051,8.56,73074.3,-5.01,-5.55,-5.55,0,*56
1514092023.81,17052,8.56,73078.8,-5.01,-5.55,-5.55,0,*55
1514092025.01,17053,8.56,73080.5,-5.01,-5.55,-5.55,0,*54
1514092026.22,17054,8.56,73086.8,-5.01,-5.51,-5.55,0,*57
1514092027.46,17055,8.56,73094.3,-5.01,-5.69,-5.65,0,*5E
1514092028.67,17056,8.56,73100.3,-5.01,-5.55,-5.55,0,*51
1514092029.89,17057,8.56,73106.0,-5.01,-5.69,-5.55,0,*5F
1514092031.12,17058,8.56,73112.3,-5.01,-5.65,-5.55,0,*5C
1514092032.36,17059,8.56,73112.0,-5.01,-5.65,-5.65,0,*5E
1514092033.61,17060,8.56,73118.3,-5.03,-5.55,-5.65,0,*55
1514092034.81,17061,8.56,73122.5,-5.01,-5.55,-5.51,0,*51
1514092036.09,17062,8.56,73124.8,-4.97,-5.61,-5.61,0,*58
1514092037.35,17063,8.56,73128.3,-4.97,-5.47,-5.61,0,*5D
1514092038.6,17064,8.56,73136.5,-4.97,-5.65,-5.51,0,*59
1514092039.85,17065,8.56,73128.3,-4.97,-5.61,-5.51,0,*5C
1514092041.08,17066,8.56,73122.8,-4.97,-5.51,-5.51,0,*5C
1514092042.33,17067,8.56,73140.0,-4.97,-5.61,-5.51,0,*5E
1514092043.61,17068,8.56,73148.3,-4.97,-5.61,-5.61,0,*52
1514092044.83,17069,8.56,73156.0,-4.95,-5.61,-5.51,0,*52
1514092046.06,17070,8.56,73162.3,-4.97,-5.51,-5.51,0,*5B
1514092047.31,17071,8.56,73156.8,-4.97,-5.51,-5.61,0,*59
1514092048.54,17072,8.56,73160.5,-4.97,-5.51,-5.51,0,*59
1514092049.82,17073,8.56,73168.3,-4.97,-5.61,-5.61,0,*58
1514092051.04,17074,8.56,73168.8,-4.95,-5.51,-5.61,0,*5E
1514092052.32,17075,8.56,73170.3,-4.97,-5.65,-5.61,0,*5A
1514092053.57,17076,8.56,73174.5,-4.97,-5.61,-5.51,0,*5E
1514092054.82,17077,8.56,73172.8,-4.97,-5.61,-5.51,0,*5F
1514092056.07,17078,8.56,73180.3,-4.97,-5.61,-5.51,0,*50
1514092057.35,17079,8.56,73184.3,-4.97,-5.61,-5.61,0,*52
1514092058.6,17080,8.56,73194.0,-4.95,-5.61,-5.61,0,*56
1514092059.85,17081,8.56,73194.0,-4.97,-5.65,-5.51,0,*52
1514092061.07,17082,8.56,73200.8,-4.95,-5.65,-5.51,0,*53
1514092062.33,17083,8.56,73204.5,-4.97,-5.65,-5.51,0,*50
1514092063.54,17084,8.56,73206.8,-4.95,-5.61,-5.51,0,*51
1514092064.79,17085,8.56,73194.3,-4.97,-5.61,-5.51,0,*52
1514092066.04,17086,8.56,73192.5,-4.97,-5.61,-5.51,0,*51
1514092067.29,17087,8.56,73190.8,-4.97,-5.61,-5.51,0,*50
1514092068.5,17088,8.56,73190.0,-5.01,-5.55,-5.55,0,*52
1514092069.71,17089,8.56,73200.5,-5.01,-5.55,-5.55,0,*53
1514092070.91,17090,8.56,73196.3,-5.01,-5.55,-5.55,0,*5B
1514092072.14,17091,8.56,73176.8,-4.97,-5.51,-5.51,0,*54
1514092073.4,17092,8.56,73172.3,-4.97,-5.47,-5.61,0,*53
1514092074.62,17093,8.56,73168.3,-4.97,-5.51,-5.47,0,*51
1514092075.85,17094,8.56,73160.5,-4.97,-5.51,-5.51,0,*51
1514092077.08,17095,8.56,73154.0,-4.97,-5.51,-5.47,0,*57
1514092078.33,17096,8.56,73154.3,-4.97,-5.65,-5.51,0,*54
1514092079.61,17097,8.56,73170.0,-4.97,-5.61,-5.61,0,*52
1514092080.85,17098,8.56,73184.0,-4.95,-5.61,-5.61,0,*5F
1514092082.08,17099,8.56,73178.3,-4.97,-5.51,-5.51,0,*5C
1514092083.31,17100,8.56,73158.0,-4.97,-5.47,-5.51,0,*5A
1514092084.54,17101,8.56,73152.0,-4.97,-5.51,-5.51,0,*5C
1514092085.77,17102,8.56,73146.0,-4.97,-5.51,-5.51,0,*5F
1514092087.0,17103,8.56,73140.5,-4.97,-5.51,-5.51,0,*5E
1514092088.25,17104,8.56,73142.3,-4.97,-5.61,-5.51,0,*5A
1514092089.48,17105,8.56,73136.0,-4.97,-5.51,-5.51,0,*58
1514092090.69,17106,8.56,73130.8,-4.95,-5.61,-5.47,0,*5D
1514092091.91,17107,8.56,73130.5,-4.95,-5.61,-5.51,0,*5B
1514092093.14,17108,8.56,73138.8,-4.97,-5.51,-5.51,0,*55
1514092094.37,17109,8.56,73142.5,-4.97,-5.51,-5.51,0,*54
1514092095.57,17110,8.56,73150.0,-4.95,-5.51,-5.51,0,*5E
1514092096.77,17111,8.56,73156.5,-4.95,-5.51,-5.51,0,*5F
1514092098.0,17112,8.56,73166.5,-4.97,-5.51,-5.51,0,*5E
1514092099.23,17113,8.56,73172.8,-4.97,-5.51,-5.51,0,*5F
1514092100.48,17114,8.56,73170.5,-4.97,-5.61,-5.47,0,*5C
1514092101.71,17115,8.56,73166.3,-4.97,-5.51,-5.51,0,*59
1514092102.94,17116,8.56,73166.3,-4.97,-5.51,-5.51,0,*5A
1514092104.19,17117,8.56,73170.3,-4.97,-5.61,-5.51,0,*58
1514092105.41,17118,8.56,73174.0,-4.97,-5.51,-5.47,0,*53
1514092106.69,17119,8.56,73170.5,-4.97,-5.61,-5.61,0,*55
1514092107.97,17120,8.56,73172.0,-4.97,-5.61,-5.61,0,*5F
1514092109.22,17121,8.56,73172.0,-4.97,-5.61,-5.51,0,*5D
1514092110.41,17122,8.56,73170.8,-4.95,-5.51,-5.51,0,*5F
1514092111.61,17123,8.56,73166.8,-4.95,-5.51,-5.51,0,*5E
1514092112.84,17124,8.56,73166.3,-4.97,-5.51,-5.51,0,*5B
1514092114.1,17125,8.56,73166.3,-4.97,-5.51,-5.61,0,*59
1514092115.33,17126,8.56,73166.5,-4.97,-5.51,-5.51,0,*59
1514092116.58,17127,8.56,73154.0,-4.97,-5.61,-5.51,0,*5B
1514092117.8,17128,8.56,73154.8,-4.95,-5.61,-5.51,0,*56
1514092119.02,17129,8.56,73164.5,-4.95,-5.61,-5.51,0,*57
1514092120.24,17130,8.56,73166.0,-4.97,-5.51,-5.47,0,*59
1514092121.47,17131,8.56,73154.8,-4.97,-5.51,-5.51,0,*5F
1514092122.7,17132,8.56,73128.8,-4.97,-5.47,-5.51,0,*5B
1514092123.95,17133,8.56,73142.3,-4.95,-5.61,-5.61,0,*5F